{"data":{"norad_id":53870,"epoch":"2026-09-20T21:56:03.608160Z","epoch_age_seconds":48289,"freshness":"FRESH","line1":"1 53870U 22114BE  26263.91393065  .00002446  00000+0  83526-4 0  9991","line2":"2 53870  53.1594  91.6878 0001208  87.4371 272.6770 15.34391466223080","mean_motion":15.34391466,"eccentricity":0.0001208,"inclination_deg":53.1594,"raan_deg":91.6878,"arg_perigee_deg":87.4371,"mean_anomaly_deg":272.677,"bstar":8.3526e-5,"rev_number":22308,"period_min":93.848280045113,"perigee_km":461.90222860602,"apogee_km":463.55498173623,"semimajor_km":6840.8656051711,"source":"CELESTRAK","updated_at":"2026-09-21T09:00:33.027032Z"}}